This is the latest recevied weather packets stored in our database for station/object NP4KB. If no packets are shown the sender has not sent any weather packets the latest 1 day(s).
| Time | Temp. | Humidity | Pressure | Rain* | Wind** | Luminosity | Snow |
|---|---|---|---|---|---|---|---|
| 1778007343 | - | - | - | 0 mm | 2.68 m/s, 223° | - | - |
| 1778007040 | - | - | - | 0 mm | 1.34 m/s, 177° | - | - |
| 1778006737 | - | - | - | 0 mm | 3.13 m/s, 130° | - | - |
| 1778006433 | - | - | - | 0 mm | 2.68 m/s, 119° | - | - |
| 1778006130 | - | - | - | 0 mm | 1.34 m/s, 173° | - | - |
| 1778005828 | - | - | - | 0 mm | 1.34 m/s, 223° | - | - |
| 1778005524 | - | - | - | 0 mm | 2.68 m/s, 171° | - | - |
| 1778005220 | - | - | - | 0 mm | 3.13 m/s, 159° | - | - |
| 1778004911 | - | - | - | 0 mm | 0.89 m/s, 112° | - | - |
| 1778004609 | - | - | - | 0 mm | 4.02 m/s, 166° | - | - |
| 1778004304 | - | - | - | 0 mm | 3.13 m/s, 124° | - | - |
| 1778004001 | - | - | - | 0 mm | 1.34 m/s, 132° | - | - |
| 1778003691 | - | - | - | 0 mm | 2.24 m/s, 134° | - | - |
| 1778003388 | - | - | - | 0 mm | 2.68 m/s, 146° | - | - |
| 1778003086 | - | - | - | 0 mm | 4.02 m/s, 138° | - | - |
| 1778002781 | - | - | - | 0 mm | 3.13 m/s, 177° | - | - |
| 1778002477 | - | - | - | 0 mm | 3.13 m/s, 128° | - | - |
| 1778002175 | - | - | - | 0 mm | 1.34 m/s, 181° | - | - |
| 1778001874 | - | - | - | 0 mm | 1.34 m/s, 150° | - | - |
| 1778001572 | - | - | - | 0 mm | 3.58 m/s, 152° | - | - |
| 1778001270 | - | - | - | 0 mm | 4.02 m/s, 168° | - | - |
| 1778000966 | - | - | - | 0 mm | 3.13 m/s, 130° | - | - |
| 1778000663 | - | - | - | 0 mm | 0.89 m/s, 150° | - | - |
| 1778000359 | - | - | - | 0 mm | 3.13 m/s, 101° | - | - |
| 1778000055 | - | - | - | 0 mm | 2.24 m/s, 172° | - | - |
* Rain latest hour (hover to see other rain measurements)
** Current wind speed in m/s (hover to see current wind gust speed)